Time,TemperatureF,DewpointF,PressureIn,WindDirection,WindDirectionDegrees,WindSpeedMPH,WindSpeedGustMPH,Humidity,HourlyPrecipIn,Conditions,Clouds,dailyrainin,SoftwareType,DateUTC
2013-01-08 00:09:00,38.3,30.0,30.39,SE,139,2.0,3.0,71,0.00,,,0.00,weatherlink.com 1.10,2013-01-08 05:09:00,
2013-01-08 00:24:00,38.7,30.0,30.39,South,172,2.0,3.0,70,0.00,,,0.00,weatherlink.com 1.10,2013-01-08 05:24:00,
2013-01-08 00:39:00,38.7,30.0,30.38,SSE,152,2.0,3.0,72,0.00,,,0.00,weatherlink.com 1.10,2013-01-08 05:39:00,
2013-01-08 00:54:00,38.2,30.0,30.38,East,93,1.0,3.0,72,0.00,,,0.00,weatherlink.com 1.10,2013-01-08 05:54:00,
2013-01-08 01:09:00,37.5,30.0,30.38,SSE,162,1.0,2.0,73,0.00,,,0.00,weatherlink.com 1.10,2013-01-08 06:09:00,
2013-01-08 01:24:00,37.9,30.0,30.38,SSE,153,2.0,4.0,72,0.00,,,0.00,weatherlink.com 1.10,2013-01-08 06:24:00,
2013-01-08 01:39:00,38.5,30.0,30.38,SE,143,2.0,4.0,71,0.00,,,0.00,weatherlink.com 1.10,2013-01-08 06:39:00,
2013-01-08 01:54:00,38.6,30.0,30.39,SE,138,0.0,3.0,70,0.00,,,0.00,weatherlink.com 1.10,2013-01-08 06:54:00,
2013-01-08 02:09:00,38.4,30.0,30.39,SE,128,1.0,3.0,71,0.00,,,0.00,weatherlink.com 1.10,2013-01-08 07:09:00,
2013-01-08 02:24:00,36.9,29.0,30.39,NNE,23,1.0,3.0,74,0.00,,,0.00,weatherlink.com 1.10,2013-01-08 07:24:00,
2013-01-08 02:39:00,36.1,30.0,30.38,NNE,12,1.0,2.0,77,0.00,,,0.00,weatherlink.com 1.10,2013-01-08 07:39:00,
2013-01-08 03:09:00,37.1,31.0,30.38,East,91,1.0,2.0,77,0.00,,,0.00,weatherlink.com 1.10,2013-01-08 08:09:00,
2013-01-08 03:24:00,36.6,30.0,30.38,NNE,12,0.0,2.0,78,0.00,,,0.00,weatherlink.com 1.10,2013-01-08 08:24:00,
2013-01-08 03:39:00,36.5,31.0,30.38,NE,49,2.0,2.0,79,0.00,,,0.00,weatherlink.com 1.10,2013-01-08 08:39:00,
2013-01-08 03:54:00,36.3,30.0,30.39,North,358,1.0,2.0,79,0.00,,,0.00,weatherlink.com 1.10,2013-01-08 08:54:00,
2013-01-08 04:09:00,35.4,30.0,30.39,North,4,1.0,2.0,81,0.00,,,0.00,weatherlink.com 1.10,2013-01-08 09:09:00,
2013-01-08 04:24:00,35.0,30.0,30.38,North,6,1.0,2.0,83,0.00,,,0.00,weatherlink.com 1.10,2013-01-08 09:24:00,
2013-01-08 04:39:00,34.6,30.0,30.38,North,6,1.0,1.0,83,0.00,,,0.00,weatherlink.com 1.10,2013-01-08 09:39:00,
2013-01-08 04:54:00,34.0,30.0,30.38,North,8,0.0,1.0,84,0.00,,,0.00,weatherlink.com 1.10,2013-01-08 09:54:00,
2013-01-08 05:09:00,33.8,30.0,30.38,North,6,1.0,1.0,85,0.00,,,0.00,weatherlink.com 1.10,2013-01-08 10:09:00,
2013-01-08 05:24:00,33.4,29.0,30.38,North,356,0.0,2.0,85,0.00,,,0.00,weatherlink.com 1.10,2013-01-08 10:24:00,
2013-01-08 05:39:00,33.2,30.0,30.38,North,4,1.0,2.0,86,0.00,,,0.00,weatherlink.com 1.10,2013-01-08 10:39:00,
2013-01-08 05:54:00,33.3,30.0,30.38,North,5,0.0,1.0,86,0.00,,,0.00,weatherlink.com 1.10,2013-01-08 10:54:00,
2013-01-08 06:09:00,33.0,29.0,30.38,North,5,0.0,1.0,86,0.00,,,0.00,weatherlink.com 1.10,2013-01-08 11:09:00,
2013-01-08 06:24:00,32.8,29.0,30.38,North,5,0.0,1.0,87,0.00,,,0.00,weatherlink.com 1.10,2013-01-08 11:24:00,
2013-01-08 06:39:00,33.1,30.0,30.39,North,4,0.0,1.0,87,0.00,,,0.00,weatherlink.com 1.10,2013-01-08 11:39:00,
2013-01-08 06:54:00,32.9,30.0,30.39,North,5,0.0,1.0,87,0.00,,,0.00,weatherlink.com 1.10,2013-01-08 11:54:00,
2013-01-08 07:09:00,32.7,30.0,30.40,North,5,0.0,0.0,88,0.00,,,0.00,weatherlink.com 1.10,2013-01-08 12:09:00,
2013-01-08 07:24:00,32.3,29.0,30.40,North,5,1.0,1.0,88,0.00,,,0.00,weatherlink.com 1.10,2013-01-08 12:24:00,
2013-01-08 07:39:00,32.3,29.0,30.41,North,5,0.0,1.0,88,0.00,,,0.00,weatherlink.com 1.10,2013-01-08 12:39:00,
2013-01-08 07:55:00,32.4,30.0,30.41,North,5,0.0,0.0,89,0.00,,,0.00,weatherlink.com 1.10,2013-01-08 12:55:00,
2013-01-08 08:10:00,32.2,30.0,30.42,North,4,0.0,0.0,91,0.00,,,0.00,weatherlink.com 1.10,2013-01-08 13:10:00,
2013-01-08 08:25:00,32.3,30.0,30.42,North,5,0.0,1.0,91,0.00,,,0.00,weatherlink.com 1.10,2013-01-08 13:25:00,
2013-01-08 08:40:00,32.8,31.0,30.43,North,5,0.0,1.0,92,0.00,,,0.00,weatherlink.com 1.10,2013-01-08 13:40:00,
2013-01-08 08:55:00,33.2,31.0,30.44,North,5,0.0,1.0,90,0.00,,,0.00,weatherlink.com 1.10,2013-01-08 13:55:00,
2013-01-08 09:10:00,33.7,31.0,30.44,North,5,0.0,1.0,90,0.00,,,0.00,weatherlink.com 1.10,2013-01-08 14:10:00,
2013-01-08 09:25:00,34.4,32.0,30.44,North,5,0.0,0.0,90,0.00,,,0.00,weatherlink.com 1.10,2013-01-08 14:25:00,
2013-01-08 09:40:00,35.7,33.0,30.44,North,4,0.0,1.0,88,0.00,,,0.00,weatherlink.com 1.10,2013-01-08 14:40:00,
2013-01-08 09:55:00,37.8,34.0,30.45,North,4,0.0,1.0,85,0.00,,,0.00,weatherlink.com 1.10,2013-01-08 14:55:00,
2013-01-08 10:10:00,40.1,35.0,30.45,SE,140,0.0,1.0,83,0.00,,,0.00,weatherlink.com 1.10,2013-01-08 15:10:00,
2013-01-08 10:25:00,41.6,36.0,30.45,SW,219,2.0,2.0,80,0.00,,,0.00,weatherlink.com 1.10,2013-01-08 15:25:00,
2013-01-08 10:40:00,43.6,36.0,30.45,SSE,150,0.0,1.0,75,0.00,,,0.00,weatherlink.com 1.10,2013-01-08 15:40:00,
2013-01-08 10:55:00,45.1,37.0,30.45,SW,225,1.0,1.0,73,0.00,,,0.00,weatherlink.com 1.10,2013-01-08 15:55:00,
2013-01-08 11:10:00,46.8,38.0,30.45,SW,223,0.0,1.0,71,0.00,,,0.00,weatherlink.com 1.10,2013-01-08 16:10:00,
2013-01-08 11:25:00,48.8,39.0,30.43,SW,218,1.0,3.0,69,0.00,,,0.00,weatherlink.com 1.10,2013-01-08 16:25:00,
2013-01-08 11:40:00,50.6,40.0,30.42,SSW,197,0.0,3.0,67,0.00,,,0.00,weatherlink.com 1.10,2013-01-08 16:40:00,
2013-01-08 11:55:00,52.0,40.0,30.41,South,183,3.0,3.0,65,0.00,,,0.00,weatherlink.com 1.10,2013-01-08 16:55:00,
2013-01-08 12:10:00,54.1,42.0,30.41,ESE,120,0.0,3.0,64,0.00,,,0.00,weatherlink.com 1.10,2013-01-08 17:10:00,
2013-01-08 12:25:00,55.8,43.0,30.39,SSE,167,3.0,4.0,63,0.00,,,0.00,weatherlink.com 1.10,2013-01-08 17:25:00,
2013-01-08 12:41:00,56.8,44.0,30.38,SSE,166,1.0,4.0,62,0.00,,,0.00,weatherlink.com 1.10,2013-01-08 17:41:00,
2013-01-08 12:56:00,56.8,44.0,30.37,ESE,103,1.0,4.0,63,0.00,,,0.00,weatherlink.com 1.10,2013-01-08 17:56:00,
2013-01-08 13:11:00,57.2,45.0,30.37,SE,139,3.0,6.0,63,0.00,,,0.00,weatherlink.com 1.10,2013-01-08 18:11:00,
2013-01-08 13:26:00,57.6,44.0,30.36,SSW,193,2.0,3.0,62,0.00,,,0.00,weatherlink.com 1.10,2013-01-08 18:26:00,
2013-01-08 13:41:00,56.8,44.0,30.36,SE,126,1.0,2.0,63,0.00,,,0.00,weatherlink.com 1.10,2013-01-08 18:41:00,
2013-01-08 13:56:00,56.9,45.0,30.36,SE,133,2.0,4.0,65,0.00,,,0.00,weatherlink.com 1.10,2013-01-08 18:56:00,
2013-01-08 14:11:00,56.9,45.0,30.36,ESE,120,1.0,2.0,65,0.00,,,0.00,weatherlink.com 1.10,2013-01-08 19:11:00,
2013-01-08 14:26:00,57.2,46.0,30.36,SSW,204,2.0,4.0,66,0.00,,,0.00,weatherlink.com 1.10,2013-01-08 19:26:00,
2013-01-08 14:41:00,57.1,46.0,30.35,SSE,160,3.0,4.0,66,0.00,,,0.00,weatherlink.com 1.10,2013-01-08 19:41:00,
2013-01-08 14:56:00,56.1,45.0,30.35,ESE,115,3.0,4.0,66,0.00,,,0.00,weatherlink.com 1.10,2013-01-08 19:56:00,
2013-01-08 15:10:00,56.2,45.0,30.35,SE,146,0.0,3.0,67,0.00,,,0.00,weatherlink.com 1.10,2013-01-08 20:10:00,
2013-01-08 15:26:00,56.4,46.0,30.35,NNE,26,1.0,1.0,69,0.00,,,0.00,weatherlink.com 1.10,2013-01-08 20:26:00,
2013-01-08 15:41:00,56.1,46.0,30.36,SE,127,1.0,3.0,68,0.00,,,0.00,weatherlink.com 1.10,2013-01-08 20:41:00,
2013-01-08 15:56:00,56.5,46.0,30.36,East,98,0.0,3.0,68,0.00,,,0.00,weatherlink.com 1.10,2013-01-08 20:56:00,
2013-01-08 16:11:00,56.6,46.0,30.36,SE,127,0.0,2.0,68,0.00,,,0.00,weatherlink.com 1.10,2013-01-08 21:11:00,
2013-01-08 16:26:00,55.4,45.0,30.35,SSE,152,1.0,2.0,69,0.00,,,0.00,weatherlink.com 1.10,2013-01-08 21:26:00,
2013-01-08 16:41:00,54.6,45.0,30.35,SW,224,1.0,3.0,71,0.00,,,0.00,weatherlink.com 1.10,2013-01-08 21:41:00,
2013-01-08 16:56:00,53.9,45.0,30.36,SSW,208,0.0,1.0,73,0.00,,,0.00,weatherlink.com 1.10,2013-01-08 21:56:00,
2013-01-08 17:11:00,52.7,45.0,30.36,SSW,208,0.0,1.0,75,0.00,,,0.00,weatherlink.com 1.10,2013-01-08 22:11:00,
2013-01-08 17:26:00,51.4,44.0,30.35,SE,138,0.0,1.0,77,0.00,,,0.00,weatherlink.com 1.10,2013-01-08 22:26:00,
2013-01-08 17:41:00,50.9,45.0,30.35,SE,145,0.0,2.0,79,0.00,,,0.00,weatherlink.com 1.10,2013-01-08 22:41:00,
2013-01-08 17:56:00,49.6,44.0,30.36,SE,146,0.0,0.0,80,0.00,,,0.00,weatherlink.com 1.10,2013-01-08 22:56:00,
2013-01-08 18:11:00,48.3,43.0,30.36,SE,145,0.0,0.0,83,0.00,,,0.00,weatherlink.com 1.10,2013-01-08 23:11:00,
2013-01-08 18:26:00,47.9,44.0,30.37,SE,146,0.0,2.0,86,0.00,,,0.00,weatherlink.com 1.10,2013-01-08 23:26:00,
2013-01-08 18:41:00,48.4,44.0,30.38,SSE,160,0.0,1.0,85,0.00,,,0.00,weatherlink.com 1.10,2013-01-08 23:41:00,
2013-01-08 18:56:00,48.6,45.0,30.38,SSE,160,0.0,0.0,86,0.00,,,0.00,weatherlink.com 1.10,2013-01-08 23:56:00,
2013-01-08 19:11:00,48.9,45.0,30.39,SSE,160,0.0,0.0,86,0.00,,,0.00,weatherlink.com 1.10,2013-01-09 00:11:00,
2013-01-08 19:26:00,48.6,45.0,30.38,SSE,160,0.0,0.0,86,0.00,,,0.00,weatherlink.com 1.10,2013-01-09 00:26:00,
2013-01-08 19:41:00,48.2,45.0,30.37,SSE,153,0.0,1.0,88,0.00,,,0.00,weatherlink.com 1.10,2013-01-09 00:41:00,
2013-01-08 19:56:00,48.8,46.0,30.38,SSE,152,0.0,1.0,89,0.00,,,0.00,weatherlink.com 1.10,2013-01-09 00:56:00,
2013-01-08 20:11:00,49.6,46.0,30.37,East,88,0.0,1.0,88,0.00,,,0.00,weatherlink.com 1.10,2013-01-09 01:11:00,
2013-01-08 20:26:00,48.5,45.0,30.37,ESE,110,0.0,0.0,87,0.00,,,0.00,weatherlink.com 1.10,2013-01-09 01:26:00,
2013-01-08 20:41:00,47.8,45.0,30.38,ESE,109,0.0,1.0,90,0.00,,,0.00,weatherlink.com 1.10,2013-01-09 01:41:00,
2013-01-08 20:56:00,47.0,45.0,30.39,ESE,109,0.0,0.0,91,0.00,,,0.00,weatherlink.com 1.10,2013-01-09 01:56:00,
2013-01-08 21:11:00,46.5,44.0,30.39,ESE,109,1.0,1.0,91,0.00,,,0.00,weatherlink.com 1.10,2013-01-09 02:11:00,
2013-01-08 21:26:00,45.8,44.0,30.39,ESE,109,0.0,0.0,92,0.00,,,0.00,weatherlink.com 1.10,2013-01-09 02:26:00,
2013-01-08 21:41:00,46.7,45.0,30.39,SE,124,1.0,2.0,94,0.00,,,0.00,weatherlink.com 1.10,2013-01-09 02:41:00,
2013-01-08 21:56:00,47.9,46.0,30.39,NE,44,1.0,2.0,94,0.00,,,0.00,weatherlink.com 1.10,2013-01-09 02:56:00,
2013-01-08 22:11:00,48.0,46.0,30.39,NNE,30,0.0,2.0,94,0.00,,,0.00,weatherlink.com 1.10,2013-01-09 03:11:00,
2013-01-08 22:26:00,48.1,46.0,30.39,North,6,2.0,2.0,93,0.00,,,0.00,weatherlink.com 1.10,2013-01-09 03:26:00,
2013-01-08 22:41:00,47.9,46.0,30.39,NE,34,1.0,2.0,93,0.00,,,0.00,weatherlink.com 1.10,2013-01-09 03:41:00,
2013-01-08 22:56:00,47.9,46.0,30.38,NE,34,0.0,1.0,94,0.00,,,0.00,weatherlink.com 1.10,2013-01-09 03:56:00,
2013-01-08 23:11:00,48.0,46.0,30.38,SE,129,0.0,1.0,94,0.00,,,0.00,weatherlink.com 1.10,2013-01-09 04:11:00,
2013-01-08 23:26:00,48.1,47.0,30.38,SE,129,0.0,1.0,94,0.00,,,0.00,weatherlink.com 1.10,2013-01-09 04:26:00,
2013-01-08 23:41:00,47.9,46.0,30.38,NE,34,0.0,2.0,94,0.00,,,0.00,weatherlink.com 1.10,2013-01-09 04:41:00,
2013-01-08 23:56:00,47.8,46.0,30.39,NNW,345,0.0,1.0,94,0.00,,,0.00,weatherlink.com 1.10,2013-01-09 04:56:00,